Regional Weather Roundup
Issued by NWS Tiyan, Guam

Home | Current Version | Previous Version | Text Only | Print | Product List | Glossary On
Versions: 1 2 3 4 5 6 7 8 9 10 11 12 13 14 15 16 17 18 19 20 21 22 23 24 25 26 27
000
ASGM40 PGUM 231012
RWRGUM
WEATHER ROUNDUP FOR THE MARIANAS
NATIONAL WEATHER SERVICE TIYAN GU
800 PM CHST WED AUG 23 2017

GUZ001>004-231100-
MARIANA ISLANDS-

CITY           SKY/WX    TMP DP  RH WIND       PRES   REMARKS
GUAM AIRPORT   CLEAR     81  79  94 CALM      29.87R
ANDERSEN AFB   CLEAR     81  77  89 SE5       29.92R
ROTA AIRPORT   PTCLDY    82  75  78 E7        29.86R
TINIAN AP      MOCLDY    82  77  83 E5        29.84R HX  91
SAIPAN AP      PTCLDY    86  79  79 E6        29.85R HX  99

$$





USA.gov is the U.S. government's official web portal to all federal, state and local government web resources and services.